| time (UTC) | temp C | wind direction | speed KPH | gust KPH | rain 1hr cm | rain 24hr cm | rain mn cm | humidity % | barometer mb |
| 20260906124059 | 20 | 0 | 1.6 | 4.8 | 0.00 | 0.03 | 0.00 | 87 | 1016.1 |
| 20260906123556 | 20 | 0 | 1.6 | 4.8 | 0.00 | 0.03 | 0.00 | 87 | 1015.9 |
| 20260906123105 | 20 | 22 | 1.6 | 6.4 | 0.00 | 0.03 | 0.00 | 88 | 1015.8 |
| 20260906122558 | 20 | 311 | 1.6 | 6.4 | 0.00 | 0.03 | 0.00 | 88 | 1015.9 |
| 20260906122059 | 20 | 360 | 1.6 | 4.8 | 0.00 | 0.03 | 0.00 | 88 | 1015.7 |
| 20260906121600 | 20 | 0 | 1.6 | 4.8 | 0.00 | 0.03 | 0.00 | 88 | 1015.7 |
| 20260906121057 | 20 | 0 | 1.6 | 4.8 | 0.00 | 0.03 | 0.00 | 88 | 1015.7 |
| 20260906120558 | 20 | 24 | 0.0 | 6.4 | 0.00 | 0.03 | 0.00 | 88 | 1015.7 |
| 20260906120105 | 20 | 360 | 0.0 | 8.0 | 0.00 | 0.03 | 0.00 | 88 | 1015.6 |
| 20260906115558 | 20 | 360 | 1.6 | 8.0 | 0.00 | 0.53 | 0.00 | 88 | 1015.7 |
| 20260906115056 | 20 | 0 | 0.0 | 8.0 | 0.00 | 0.53 | 0.00 | 88 | 1015.6 |
| 20260906114559 | 20 | 0 | 1.6 | 8.0 | 0.00 | 0.53 | 0.00 | 88 | 1015.4 |
| 20260906114056 | 20 | 69 | 3.2 | 11.3 | 0.00 | 0.53 | 0.00 | 88 | 1015.4 |
| 20260906113556 | 20 | 336 | 3.2 | 11.3 | 0.00 | 0.53 | 0.00 | 89 | 1015.3 |
| 20260906113104 | 20 | 246 | 1.6 | 8.0 | 0.00 | 0.53 | 0.00 | 89 | 1015.2 |
| 20260906112557 | 20 | 31 | 3.2 | 8.0 | 0.00 | 0.53 | 0.00 | 89 | 1015.2 |
| 20260906112057 | 20 | 0 | 1.6 | 9.7 | 0.00 | 0.53 | 0.00 | 89 | 1015.2 |
| 20260906111603 | 20 | 28 | 3.2 | 9.7 | 0.00 | 0.53 | 0.00 | 89 | 1015.0 |
| 20260906111058 | 20 | 294 | 3.2 | 8.0 | 0.00 | 0.53 | 0.00 | 89 | 1015.0 |
| 20260906110557 | 20 | 333 | 1.6 | 8.0 | 0.00 | 0.53 | 0.00 | 90 | 1014.8 |
| 20260906105558 | 20 | 14 | 1.6 | 12.9 | 0.00 | 1.07 | 0.00 | 90 | 1014.7 |
| 20260906105057 | 20 | 11 | 1.6 | 12.9 | 0.00 | 1.07 | 0.00 | 90 | 1014.6 |
| 20260906104558 | 20 | 13 | 3.2 | 6.4 | 0.00 | 1.07 | 0.00 | 91 | 1014.6 |
| 20260906104057 | 20 | 30 | 1.6 | 4.8 | 0.00 | 1.07 | 0.00 | 91 | 1014.5 |
| 20260906103556 | 21 | 355 | 0.0 | 3.2 | 0.00 | 1.07 | 0.00 | 91 | 1014.5 |
| 20260906103111 | 21 | 0 | 0.0 | 4.8 | 0.00 | 1.07 | 0.00 | 91 | 1014.5 |
| 20260906102557 | 21 | 0 | 0.0 | 4.8 | 0.00 | 1.07 | 0.00 | 91 | 1014.2 |
| 20260906102057 | 21 | 85 | 0.0 | 4.8 | 0.00 | 1.07 | 0.00 | 91 | 1014.2 |
| 20260906101603 | 21 | 318 | 1.6 | 4.8 | 0.00 | 1.07 | 0.00 | 91 | 1014.2 |
| 20260906101056 | 21 | 0 | 0.0 | 4.8 | 0.00 | 1.07 | 0.00 | 91 | 1014.1 |
| 20260906100558 | 21 | 18 | 0.0 | 4.8 | 0.00 | 1.07 | 0.00 | 91 | 1014.0 |
| 20260906100111 | 21 | 5 | 1.6 | 6.4 | 0.00 | 1.07 | 0.00 | 92 | 1014.2 |
| 20260906095601 | 21 | 0 | 1.6 | 8.0 | 0.00 | 1.07 | 0.00 | 92 | 1014.2 |
| 20260906095057 | 21 | 0 | 1.6 | 8.0 | 0.00 | 1.07 | 0.00 | 92 | 1014.1 |
| 20260906094621 | 21 | 24 | 1.6 | 6.4 | 0.00 | 1.07 | 0.00 | 92 | 1014.1 |
| 20260906094056 | 21 | 343 | 1.6 | 4.8 | 0.00 | 1.07 | 0.00 | 92 | 1014.0 |
| 20260906093559 | 21 | 360 | 1.6 | 4.8 | 0.00 | 1.07 | 0.00 | 93 | 1014.1 |
| 20260906093059 | 21 | 321 | 1.6 | 4.8 | 0.00 | 1.07 | 0.00 | 93 | 1014.0 |
| 20260906092559 | 21 | 327 | 1.6 | 4.8 | 0.00 | 1.07 | 0.00 | 93 | 1014.1 |
| 20260906092056 | 21 | 5 | 1.6 | 4.8 | 0.00 | 1.07 | 0.00 | 93 | 1014.0 |
| 20260906091604 | 21 | 85 | 0.0 | 4.8 | 0.00 | 1.07 | 0.00 | 93 | 1014.0 |
| 20260906091058 | 21 | 0 | 0.0 | 3.2 | 0.00 | 1.07 | 0.00 | 93 | 1014.0 |
| 20260906090556 | 21 | 0 | 0.0 | 6.4 | 0.00 | 1.07 | 0.00 | 93 | 1014.1 |
| 20260906090115 | 21 | 86 | 0.0 | 6.4 | 0.00 | 1.07 | 0.00 | 93 | 1014.0 |
| 20260906085559 | 21 | 0 | 0.0 | 4.8 | 0.00 | 1.07 | 0.00 | 93 | 1014.0 |
| 20260906085100 | 21 | 0 | 0.0 | 4.8 | 0.00 | 1.07 | 0.00 | 93 | 1013.9 |
| 20260906084605 | 21 | 34 | 1.6 | 4.8 | 0.00 | 1.07 | 0.00 | 93 | 1013.9 |
| 20260906084056 | 21 | 0 | 0.0 | 4.8 | 0.00 | 1.07 | 0.00 | 94 | 1014.0 |
| 20260906083556 | 21 | 327 | 0.0 | 4.8 | 0.00 | 1.07 | 0.00 | 94 | 1014.0 |
| 20260906083105 | 21 | 338 | 1.6 | 6.4 | 0.00 | 1.07 | 0.00 | 94 | 1014.0 |
| 20260906082556 | 21 | 0 | 1.6 | 6.4 | 0.00 | 1.07 | 0.00 | 94 | 1013.9 |
| 20260906082056 | 21 | 0 | 0.0 | 4.8 | 0.00 | 1.07 | 0.00 | 94 | 1013.9 |
| 20260906081603 | 21 | 51 | 0.0 | 4.8 | 0.00 | 1.07 | 0.00 | 94 | 1014.1 |
| 20260906081058 | 21 | 346 | 0.0 | 4.8 | 0.00 | 1.07 | 0.00 | 94 | 1014.2 |
| 20260906080556 | 21 | 344 | 0.0 | 4.8 | 0.00 | 1.07 | 0.00 | 94 | 1014.2 |
| 20260906080104 | 21 | 5 | 0.0 | 4.8 | 0.00 | 1.07 | 0.00 | 94 | 1014.0 |
| 20260906075556 | 21 | 5 | 0.0 | 3.2 | 0.00 | 1.07 | 0.00 | 94 | 1014.0 |
| 20260906075056 | 21 | 0 | 0.0 | 1.6 | 0.00 | 1.07 | 0.00 | 93 | 1013.7 |
| 20260906074600 | 20 | 0 | 0.0 | 0.0 | 0.00 | 1.07 | 0.00 | 93 | 1013.9 |
| 20260906074056 | 20 | 0 | 0.0 | 1.6 | 0.00 | 1.07 | 0.00 | 93 | 1013.8 |
| 20260906073601 | 21 | 0 | 0.0 | 1.6 | 0.00 | 1.07 | 0.00 | 93 | 1013.8 |
| 20260906073104 | 21 | 0 | 0.0 | 0.0 | 0.00 | 1.07 | 0.00 | 93 | 1013.8 |
| 20260906072557 | 21 | 0 | 0.0 | 3.2 | 0.00 | 1.07 | 0.00 | 93 | 1013.8 |
| 20260906072057 | 21 | 0 | 0.0 | 3.2 | 0.00 | 1.07 | 0.00 | 93 | 1013.8 |
| 20260906071602 | 21 | 5 | 0.0 | 1.6 | 0.00 | 1.07 | 0.00 | 93 | 1013.9 |
| 20260906071056 | 21 | 0 | 0.0 | 0.0 | 0.00 | 1.07 | 0.00 | 93 | 1013.8 |
| 20260906070557 | 21 | 0 | 0.0 | 0.0 | 0.00 | 1.07 | 0.00 | 93 | 1014.0 |
| 20260906070104 | 21 | 0 | 0.0 | 1.6 | 0.00 | 1.07 | 0.00 | 93 | 1014.2 |
| 20260906065600 | 21 | 0 | 0.0 | 3.2 | 0.00 | 1.07 | 0.00 | 93 | 1014.1 |
| 20260906065056 | 21 | 0 | 0.0 | 3.2 | 0.00 | 1.07 | 0.00 | 93 | 1014.1 |
| 20260906064611 | 21 | 5 | 0.0 | 3.2 | 0.00 | 1.07 | 0.00 | 93 | 1014.1 |
| 20260906064057 | 21 | 0 | 0.0 | 1.6 | 0.00 | 1.07 | 0.00 | 93 | 1014.2 |
| 20260906063556 | 21 | 0 | 0.0 | 1.6 | 0.00 | 1.07 | 0.00 | 93 | 1014.2 |
| 20260906063103 | 21 | 0 | 0.0 | 0.0 | 0.00 | 1.07 | 0.00 | 93 | 1014.1 |
| 20260906062556 | 21 | 0 | 0.0 | 0.0 | 0.00 | 1.07 | 0.00 | 93 | 1014.1 |
| 20260906062057 | 21 | 0 | 0.0 | 0.0 | 0.00 | 1.07 | 0.00 | 93 | 1014.0 |
| 20260906061607 | 21 | 0 | 0.0 | 0.0 | 0.00 | 1.07 | 0.00 | 93 | 1014.0 |
| 20260906061056 | 21 | 0 | 0.0 | 0.0 | 0.00 | 1.07 | 0.00 | 93 | 1013.9 |
| 20260906060556 | 21 | 0 | 0.0 | 0.0 | 0.00 | 1.07 | 0.00 | 93 | 1013.9 |
| 20260906060107 | 21 | 0 | 0.0 | 0.0 | 0.00 | 1.07 | 0.00 | 93 | 1013.8 |
| 20260906055556 | 21 | 0 | 0.0 | 0.0 | 0.00 | 1.07 | 0.00 | 93 | 1013.9 |
| 20260906055056 | 21 | 0 | 0.0 | 0.0 | 0.00 | 1.07 | 0.00 | 93 | 1013.9 |
| 20260906054559 | 21 | 0 | 0.0 | 0.0 | 0.00 | 1.07 | 0.00 | 93 | 1013.8 |
| 20260906054058 | 21 | 0 | 0.0 | 0.0 | 0.00 | 1.07 | 0.00 | 93 | 1013.7 |
| 20260906053556 | 21 | 0 | 0.0 | 1.6 | 0.00 | 1.07 | 0.00 | 93 | 1013.8 |
| 20260906053105 | 21 | 0 | 0.0 | 1.6 | 0.00 | 1.07 | 0.00 | 93 | 1013.9 |
| 20260906052559 | 21 | 0 | 0.0 | 3.2 | 0.00 | 1.07 | 0.00 | 93 | 1014.0 |
| 20260906052059 | 21 | 0 | 0.0 | 3.2 | 0.00 | 1.07 | 0.00 | 93 | 1013.9 |
| 20260906051603 | 21 | 5 | 0.0 | 3.2 | 0.00 | 1.07 | 0.00 | 93 | 1013.7 |
| 20260906051058 | 21 | 0 | 0.0 | 4.8 | 0.00 | 1.07 | 0.00 | 93 | 1013.7 |
| 20260906050558 | 21 | 5 | 0.0 | 4.8 | 0.00 | 1.07 | 0.00 | 93 | 1013.7 |
| 20260906050105 | 21 | 5 | 0.0 | 3.2 | 0.00 | 1.07 | 0.00 | 93 | 1013.7 |
| 20260906045558 | 21 | 0 | 0.0 | 3.2 | 0.00 | 1.07 | 0.00 | 93 | 1013.8 |
| 20260906045058 | 21 | 0 | 0.0 | 3.2 | 0.00 | 1.07 | 0.00 | 93 | 1013.7 |
| 20260906044559 | 21 | 0 | 0.0 | 3.2 | 0.00 | 1.07 | 0.00 | 93 | 1013.6 |
| 20260906044058 | 21 | 0 | 0.0 | 3.2 | 0.00 | 1.07 | 0.00 | 92 | 1013.6 |
| 20260906043557 | 21 | 0 | 0.0 | 0.0 | 0.00 | 1.07 | 0.00 | 92 | 1013.7 |
| 20260906043102 | 21 | 0 | 0.0 | 1.6 | 0.00 | 1.07 | 0.00 | 92 | 1013.7 |
| 20260906042557 | 21 | 0 | 0.0 | 3.2 | 0.00 | 1.07 | 0.00 | 92 | 1013.6 |
| 20260906042057 | 21 | 0 | 0.0 | 3.2 | 0.00 | 1.07 | 0.00 | 92 | 1013.6 |
| 20260906041605 | 22 | 0 | 0.0 | 1.6 | 0.00 | 1.07 | 0.00 | 92 | 1013.5 |
| 20260906041058 | 22 | 0 | 0.0 | 1.6 | 0.00 | 1.07 | 0.00 | 92 | 1013.7 |
| 20260906040558 | 22 | 0 | 0.0 | 1.6 | 0.00 | 1.07 | 0.00 | 92 | 1013.7 |
| 20260906040104 | 22 | 0 | 0.0 | 3.2 | 0.00 | 1.07 | 0.00 | 92 | 1013.6 |
| 20260906035558 | 22 | 0 | 0.0 | 3.2 | 0.00 | 1.07 | 1.07 | 92 | 1013.5 |
| 20260906035058 | 22 | 20 | 0.0 | 3.2 | 0.00 | 1.07 | 1.07 | 92 | 1013.5 |
| 20260906034559 | 22 | 0 | 0.0 | 1.6 | 0.00 | 1.07 | 1.07 | 92 | 1013.4 |
| 20260906034057 | 22 | 0 | 0.0 | 3.2 | 0.00 | 1.07 | 1.07 | 92 | 1013.5 |
| 20260906033600 | 22 | 0 | 0.0 | 3.2 | 0.00 | 1.07 | 1.07 | 92 | 1013.5 |
| 20260906033106 | 22 | 28 | 0.0 | 1.6 | 0.00 | 1.07 | 1.07 | 92 | 1013.4 |
| 20260906032558 | 22 | 0 | 0.0 | 1.6 | 0.00 | 1.07 | 1.07 | 92 | 1013.6 |
| 20260906032057 | 22 | 0 | 0.0 | 1.6 | 0.00 | 1.07 | 1.07 | 92 | 1013.7 |
| 20260906031603 | 22 | 28 | 0.0 | 3.2 | 0.00 | 1.07 | 1.07 | 92 | 1013.8 |
| 20260906031058 | 22 | 0 | 0.0 | 4.8 | 0.00 | 1.07 | 1.07 | 92 | 1013.7 |
| 20260906030558 | 22 | 28 | 0.0 | 4.8 | 0.00 | 1.07 | 1.07 | 92 | 1013.9 |
| 20260906030109 | 22 | 0 | 0.0 | 4.8 | 0.00 | 1.07 | 1.07 | 93 | 1013.9 |
| 20260906025558 | 22 | 0 | 0.0 | 4.8 | 0.00 | 1.07 | 1.07 | 92 | 1013.8 |
| 20260906025058 | 22 | 21 | 1.6 | 4.8 | 0.00 | 1.07 | 1.07 | 92 | 1014.0 |
| 20260906024608 | 22 | 292 | 0.0 | 3.2 | 0.00 | 1.07 | 1.07 | 92 | 1014.0 |
| 20260906024057 | 22 | 0 | 0.0 | 3.2 | 0.00 | 1.07 | 1.07 | 92 | 1013.8 |
| 20260906023557 | 22 | 0 | 0.0 | 3.2 | 0.00 | 1.07 | 1.07 | 92 | 1013.9 |
| 20260906023102 | 22 | 0 | 0.0 | 0.0 | 0.00 | 1.07 | 1.07 | 92 | 1013.8 |
| 20260906022557 | 22 | 0 | 0.0 | 0.0 | 0.00 | 1.07 | 1.07 | 92 | 1013.8 |
| 20260906022058 | 22 | 0 | 0.0 | 0.0 | 0.00 | 1.07 | 1.07 | 92 | 1013.6 |
| 20260906021607 | 22 | 0 | 0.0 | 0.0 | 0.00 | 1.07 | 1.07 | 92 | 1013.6 |
| 20260906021059 | 22 | 0 | 0.0 | 0.0 | 0.00 | 1.07 | 1.07 | 92 | 1013.6 |
| 20260906020557 | 22 | 0 | 0.0 | 0.0 | 0.00 | 1.07 | 1.07 | 92 | 1013.7 |
| 20260906020108 | 22 | 0 | 0.0 | 0.0 | 0.00 | 1.07 | 1.07 | 92 | 1013.6 |
| 20260906015557 | 22 | 0 | 0.0 | 0.0 | 0.00 | 1.07 | 1.07 | 92 | 1013.5 |
| 20260906015057 | 22 | 0 | 0.0 | 0.0 | 0.00 | 1.07 | 1.07 | 91 | 1013.5 |
| 20260906014611 | 23 | 0 | 0.0 | 0.0 | 0.00 | 1.07 | 1.07 | 91 | 1013.5 |
| 20260906014059 | 23 | 0 | 0.0 | 0.0 | 0.00 | 1.07 | 1.07 | 91 | 1013.3 |
| 20260906013558 | 23 | 0 | 0.0 | 0.0 | 0.00 | 1.07 | 1.07 | 91 | 1013.4 |
| 20260906013100 | 23 | 0 | 0.0 | 1.6 | 0.00 | 1.07 | 1.07 | 91 | 1013.5 |
| 20260906012557 | 23 | 0 | 0.0 | 3.2 | 0.00 | 1.07 | 1.07 | 91 | 1013.4 |
| 20260906012059 | 23 | 0 | 0.0 | 3.2 | 0.00 | 1.07 | 1.07 | 91 | 1013.3 |
| 20260906011613 | 23 | 0 | 0.0 | 3.2 | 0.00 | 1.07 | 1.07 | 91 | 1013.2 |
| 20260906011058 | 23 | 0 | 0.0 | 3.2 | 0.00 | 1.07 | 1.07 | 90 | 1013.2 |
| 20260906010557 | 23 | 0 | 0.0 | 3.2 | 0.00 | 1.07 | 1.07 | 90 | 1013.0 |
| 20260906010108 | 23 | 0 | 0.0 | 1.6 | 0.00 | 1.07 | 1.07 | 90 | 1012.9 |
| 20260906005557 | 23 | 292 | 0.0 | 1.6 | 0.00 | 1.07 | 1.07 | 90 | 1012.8 |
| 20260906005058 | 23 | 0 | 0.0 | 1.6 | 0.00 | 1.07 | 1.07 | 90 | 1012.7 |
| 20260906004605 | 23 | 0 | 0.0 | 1.6 | 0.00 | 1.07 | 1.07 | 89 | 1012.7 |
| 20260906004058 | 23 | 0 | 0.0 | 1.6 | 0.00 | 1.07 | 1.07 | 89 | 1012.7 |
| 20260906003556 | 23 | 0 | 0.0 | 3.2 | 0.00 | 1.07 | 1.07 | 89 | 1012.8 |
| 20260906003103 | 23 | 0 | 0.0 | 3.2 | 0.00 | 1.07 | 1.07 | 88 | 1012.8 |
| 20260906002557 | 24 | 292 | 0.0 | 0.0 | 0.00 | 1.07 | 1.07 | 88 | 1012.8 |
| 20260906002101 | 24 | 0 | 0.0 | 0.0 | 0.00 | 1.07 | 1.07 | 88 | 1012.8 |
| 20260906001602 | 24 | 0 | 0.0 | 0.0 | 0.00 | 1.07 | 1.07 | 87 | 1012.9 |
| 20260906001101 | 25 | 0 | 0.0 | 0.0 | 0.00 | 1.07 | 1.07 | 86 | 1012.9 |
| 20260906000557 | 25 | 0 | 0.0 | 0.0 | 0.00 | 1.07 | 1.07 | 85 | 1012.9 |
| 20260906000108 | 25 | 0 | 0.0 | 0.0 | 0.00 | 1.07 | 1.07 | 84 | 1012.9 |
| 20260905235557 | 25 | 0 | 0.0 | 3.2 | 0.00 | 1.07 | 1.07 | 83 | 1013.0 |
| 20260905235059 | 25 | 0 | 0.0 | 3.2 | 0.00 | 1.07 | 1.07 | 83 | 1013.0 |
| 20260905234606 | 25 | 0 | 0.0 | 3.2 | 0.00 | 1.07 | 1.07 | 82 | 1013.0 |
| 20260905234058 | 26 | 0 | 0.0 | 1.6 | 0.00 | 1.07 | 1.07 | 82 | 1013.0 |
| 20260905233558 | 26 | 0 | 0.0 | 0.0 | 0.00 | 1.07 | 1.07 | 81 | 1013.0 |
| 20260905233125 | 26 | 0 | 0.0 | 1.6 | 0.00 | 1.07 | 1.07 | 81 | 1012.8 |
| 20260905232558 | 26 | 0 | 0.0 | 1.6 | 0.00 | 1.07 | 1.07 | 80 | 1012.9 |
| 20260905232058 | 26 | 292 | 0.0 | 3.2 | 0.00 | 1.07 | 1.07 | 78 | 1013.0 |
| 20260905231607 | 27 | 0 | 0.0 | 3.2 | 0.00 | 1.07 | 1.07 | 77 | 1012.9 |
| 20260905231058 | 27 | 292 | 0.0 | 3.2 | 0.00 | 1.07 | 1.07 | 76 | 1012.8 |
| 20260905230601 | 27 | 292 | 0.0 | 3.2 | 0.00 | 1.07 | 1.07 | 76 | 1012.9 |
| 20260905230109 | 27 | 0 | 0.0 | 3.2 | 0.00 | 1.07 | 1.07 | 75 | 1012.9 |
| 20260905225556 | 27 | 292 | 1.6 | 3.2 | 0.00 | 1.07 | 1.07 | 74 | 1012.9 |
| 20260905225058 | 28 | 292 | 0.0 | 3.2 | 0.00 | 1.07 | 1.07 | 75 | 1012.8 |
| 20260905224615 | 28 | 292 | 0.0 | 3.2 | 0.00 | 1.07 | 1.07 | 74 | 1012.8 |
| 20260905224057 | 28 | 0 | 1.6 | 4.8 | 0.00 | 1.07 | 1.07 | 70 | 1012.8 |
| 20260905223558 | 28 | 292 | 1.6 | 4.8 | 0.00 | 1.07 | 1.07 | 70 | 1012.8 |
| 20260905223108 | 28 | 292 | 1.6 | 4.8 | 0.00 | 1.07 | 1.07 | 69 | 1012.9 |
| 20260905222601 | 28 | 292 | 1.6 | 4.8 | 0.00 | 1.07 | 1.07 | 69 | 1012.9 |
| 20260905222057 | 28 | 330 | 1.6 | 3.2 | 0.00 | 1.07 | 1.07 | 68 | 1013.0 |
| 20260905221607 | 28 | 360 | 1.6 | 4.8 | 0.00 | 1.07 | 1.07 | 69 | 1013.0 |
| 20260905221058 | 28 | 360 | 0.0 | 4.8 | 0.00 | 1.07 | 1.07 | 69 | 1012.8 |
| 20260905220557 | 28 | 360 | 1.6 | 4.8 | 0.00 | 1.07 | 1.07 | 69 | 1013.0 |
| 20260905220105 | 28 | 0 | 0.0 | 4.8 | 0.00 | 1.07 | 1.07 | 70 | 1013.0 |
| 20260905215558 | 28 | 313 | 1.6 | 4.8 | 0.00 | 1.07 | 1.07 | 71 | 1013.1 |
| 20260905215058 | 28 | 280 | 1.6 | 4.8 | 0.00 | 1.07 | 1.07 | 71 | 1013.0 |
| 20260905214605 | 28 | 0 | 0.0 | 4.8 | 0.00 | 1.07 | 1.07 | 71 | 1012.9 |
| 20260905214057 | 28 | 339 | 1.6 | 6.4 | 0.00 | 1.07 | 1.07 | 72 | 1013.0 |
| 20260905213558 | 28 | 342 | 1.6 | 6.4 | 0.00 | 1.07 | 1.07 | 71 | 1012.9 |
| 20260905213106 | 28 | 318 | 1.6 | 4.8 | 0.00 | 1.07 | 1.07 | 70 | 1012.9 |
| 20260905212557 | 28 | 319 | 0.0 | 4.8 | 0.00 | 1.07 | 1.07 | 70 | 1012.8 |
| 20260905212058 | 28 | 272 | 1.6 | 4.8 | 0.00 | 1.07 | 1.07 | 70 | 1012.8 |
| 20260905211601 | 28 | 33 | 1.6 | 4.8 | 0.00 | 1.07 | 1.07 | 69 | 1012.7 |
| 20260905211057 | 28 | 316 | 1.6 | 6.4 | 0.00 | 1.07 | 1.07 | 69 | 1012.8 |
| 20260905210556 | 28 | 0 | 3.2 | 6.4 | 0.00 | 1.07 | 1.07 | 68 | 1012.7 |
| 20260905205558 | 28 | 348 | 1.6 | 4.8 | 0.00 | 1.07 | 1.07 | 71 | 1012.6 |
| 20260905205058 | 28 | 333 | 1.6 | 6.4 | 0.00 | 1.07 | 1.07 | 71 | 1012.7 |
| 20260905204606 | 28 | 355 | 1.6 | 6.4 | 0.00 | 1.07 | 1.07 | 71 | 1012.6 |
| 20260905204057 | 28 | 348 | 1.6 | 6.4 | 0.00 | 1.07 | 1.07 | 71 | 1012.8 |
| 20260905203559 | 28 | 337 | 1.6 | 8.0 | 0.00 | 1.07 | 1.07 | 70 | 1012.8 |
| 20260905203105 | 29 | 297 | 1.6 | 12.9 | 0.00 | 1.07 | 1.07 | 69 | 1012.9 |
| 20260905202600 | 29 | 311 | 1.6 | 12.9 | 0.00 | 1.07 | 1.07 | 68 | 1012.9 |
| 20260905202100 | 29 | 351 | 1.6 | 6.4 | 0.00 | 1.07 | 1.07 | 68 | 1012.9 |
| 20260905201613 | 29 | 235 | 1.6 | 6.4 | 0.00 | 1.07 | 1.07 | 68 | 1012.9 |
| 20260905201058 | 29 | 286 | 3.2 | 6.4 | 0.00 | 1.07 | 1.07 | 69 | 1013.0 |
| 20260905200557 | 29 | 304 | 1.6 | 6.4 | 0.00 | 1.07 | 1.07 | 68 | 1013.0 |
| 20260905195556 | 29 | 277 | 0.0 | 6.4 | 0.00 | 1.07 | 1.07 | 70 | 1013.1 |
| 20260905195057 | 29 | 0 | 0.0 | 6.4 | 0.00 | 1.07 | 1.07 | 67 | 1013.2 |
| 20260905194607 | 28 | 0 | 1.6 | 4.8 | 0.00 | 1.07 | 1.07 | 70 | 1013.3 |
| 20260905194100 | 28 | 273 | 1.6 | 4.8 | 0.00 | 1.07 | 1.07 | 70 | 1013.3 |
| 20260905193559 | 28 | 273 | 0.0 | 4.8 | 0.00 | 1.07 | 1.07 | 71 | 1013.4 |
| 20260905193104 | 28 | 0 | 1.6 | 4.8 | 0.00 | 1.07 | 1.07 | 70 | 1013.5 |
| 20260905192558 | 28 | 273 | 0.0 | 4.8 | 0.00 | 1.07 | 1.07 | 69 | 1013.5 |
| 20260905192057 | 28 | 273 | 0.0 | 4.8 | 0.00 | 1.07 | 1.07 | 69 | 1013.6 |
| 20260905191610 | 27 | 273 | 0.0 | 6.4 | 0.00 | 1.07 | 1.07 | 70 | 1013.7 |
| 20260905191057 | 28 | 273 | 1.6 | 6.4 | 0.00 | 1.07 | 1.07 | 70 | 1013.7 |
| 20260905190556 | 28 | 270 | 3.2 | 6.4 | 0.00 | 1.07 | 1.07 | 69 | 1013.7 |
| 20260905190132 | 29 | 300 | 3.2 | 6.4 | 0.00 | 1.07 | 1.07 | 70 | 1013.9 |
| 20260905185556 | 28 | 227 | 1.6 | 6.4 | 0.00 | 1.22 | 1.07 | 69 | 1013.9 |
| 20260905185058 | 28 | 266 | 0.0 | 4.8 | 0.00 | 1.22 | 1.07 | 69 | 1013.9 |
| 20260905184623 | 28 | 175 | 0.0 | 4.8 | 0.00 | 1.22 | 1.07 | 70 | 1014.0 |
| 20260905184101 | 28 | 189 | 1.6 | 6.4 | 0.00 | 1.22 | 1.07 | 69 | 1014.1 |
| 20260905183559 | 28 | 0 | 1.6 | 6.4 | 0.00 | 1.22 | 1.07 | 70 | 1014.0 |
| 20260905183109 | 29 | 307 | 1.6 | 6.4 | 0.00 | 1.22 | 1.07 | 68 | 1014.0 |
| 20260905182557 | 29 | 0 | 3.2 | 6.4 | 0.00 | 1.22 | 1.07 | 69 | 1014.0 |
| 20260905182058 | 29 | 157 | 1.6 | 9.7 | 0.00 | 1.22 | 1.07 | 69 | 1014.2 |
| 20260905181603 | 29 | 139 | 1.6 | 9.7 | 0.00 | 1.22 | 1.07 | 69 | 1014.3 |
| 20260905181057 | 28 | 102 | 0.0 | 9.7 | 0.00 | 1.22 | 1.07 | 70 | 1014.2 |
| 20260905180557 | 28 | 197 | 0.0 | 9.7 | 0.00 | 1.22 | 1.07 | 73 | 1014.2 |
| 20260905180108 | 28 | 119 | 3.2 | 9.7 | 0.00 | 1.22 | 1.07 | 69 | 1014.2 |
| 20260905175557 | 28 | 301 | 3.2 | 11.3 | 0.00 | 1.22 | 1.07 | 71 | 1014.3 |
| 20260905175057 | 28 | 138 | 1.6 | 11.3 | 0.00 | 1.22 | 1.07 | 70 | 1014.4 |
| 20260905174608 | 28 | 281 | 3.2 | 9.7 | 0.00 | 1.22 | 1.07 | 70 | 1014.5 |
| 20260905174057 | 28 | 194 | 1.6 | 9.7 | 0.00 | 1.22 | 1.07 | 71 | 1014.5 |
| 20260905173601 | 28 | 148 | 1.6 | 8.0 | 0.00 | 1.22 | 1.07 | 72 | 1014.6 |
| 20260905173109 | 28 | 192 | 3.2 | 8.0 | 0.00 | 1.22 | 1.07 | 71 | 1014.6 |
| 20260905172559 | 27 | 267 | 1.6 | 8.0 | 0.00 | 1.22 | 1.07 | 74 | 1014.6 |
| 20260905172100 | 27 | 142 | 1.6 | 6.4 | 0.00 | 1.22 | 1.07 | 73 | 1014.8 |
| 20260905171603 | 27 | 0 | 1.6 | 8.0 | 0.00 | 1.22 | 1.07 | 74 | 1014.9 |
| 20260905171057 | 27 | 186 | 1.6 | 11.3 | 0.00 | 1.22 | 1.07 | 75 | 1014.8 |
| 20260905170557 | 27 | 196 | 1.6 | 11.3 | 0.00 | 1.22 | 1.07 | 74 | 1015.0 |
| 20260905170114 | 27 | 205 | 1.6 | 11.3 | 0.00 | 1.22 | 1.07 | 75 | 1015.2 |
| 20260905165557 | 27 | 154 | 3.2 | 11.3 | 0.00 | 1.22 | 1.07 | 74 | 1015.1 |
| 20260905165059 | 27 | 0 | 1.6 | 9.7 | 0.00 | 1.22 | 1.07 | 75 | 1015.0 |
| 20260905164605 | 27 | 116 | 1.6 | 8.0 | 0.00 | 1.22 | 1.07 | 76 | 1014.9 |
| 20260905164057 | 26 | 101 | 1.6 | 9.7 | 0.00 | 1.22 | 1.07 | 76 | 1015.0 |
| 20260905163557 | 27 | 137 | 3.2 | 9.7 | 0.00 | 1.22 | 1.07 | 76 | 1015.1 |
| 20260905163105 | 27 | 86 | 1.6 | 6.4 | 0.00 | 1.22 | 1.07 | 76 | 1015.3 |
| 20260905162558 | 27 | 155 | 1.6 | 11.3 | 0.00 | 1.22 | 1.07 | 77 | 1015.2 |
| 20260905162058 | 27 | 107 | 1.6 | 11.3 | 0.00 | 1.22 | 1.07 | 77 | 1015.2 |
| 20260905161604 | 27 | 113 | 1.6 | 6.4 | 0.00 | 1.22 | 1.07 | 77 | 1015.2 |
| 20260905161057 | 26 | 131 | 1.6 | 6.4 | 0.00 | 1.22 | 1.07 | 77 | 1015.5 |
| 20260905160556 | 26 | 105 | 3.2 | 6.4 | 0.00 | 1.22 | 1.07 | 82 | 1015.6 |
| 20260905160100 | 25 | 290 | 1.6 | 6.4 | 0.00 | 1.22 | 1.07 | 83 | 1015.8 |
| 20260905155556 | 25 | 251 | 0.0 | 6.4 | 0.00 | 1.22 | 1.07 | 82 | 1016.0 |
| 20260905155056 | 25 | 218 | 0.0 | 6.4 | 0.00 | 1.22 | 1.07 | 81 | 1015.9 |
| 20260905154609 | 25 | 205 | 1.6 | 6.4 | 0.00 | 1.22 | 1.07 | 81 | 1015.8 |
| 20260905154058 | 25 | 175 | 0.0 | 4.8 | 0.00 | 1.22 | 1.07 | 82 | 1015.8 |
| 20260905153558 | 25 | 0 | 0.0 | 4.8 | 0.00 | 1.22 | 1.07 | 85 | 1015.8 |
| 20260905153102 | 24 | 89 | 0.0 | 4.8 | 0.00 | 1.22 | 1.07 | 85 | 1015.7 |
| 20260905152556 | 23 | 89 | 1.6 | 4.8 | 0.00 | 1.22 | 1.07 | 86 | 1015.7 |
| 20260905152057 | 23 | 11 | 0.0 | 3.2 | 0.00 | 1.22 | 1.07 | 86 | 1015.8 |
| 20260905151603 | 23 | 0 | 0.0 | 3.2 | 0.00 | 1.22 | 1.07 | 86 | 1015.5 |
| 20260905151057 | 23 | 11 | 0.0 | 4.8 | 0.00 | 1.22 | 1.07 | 88 | 1015.6 |
| 20260905150556 | 23 | 0 | 0.0 | 4.8 | 0.00 | 1.22 | 1.07 | 89 | 1015.4 |
| 20260905150058 | 23 | 11 | 1.6 | 9.7 | 0.00 | 1.22 | 1.07 | 90 | 1015.5 |
| 20260905145557 | 23 | 345 | 1.6 | 9.7 | 0.00 | 1.22 | 1.07 | 91 | 1015.5 |
| 20260905145056 | 23 | 92 | 1.6 | 8.0 | 0.00 | 1.22 | 1.07 | 91 | 1015.3 |
| 20260905144602 | 22 | 80 | 0.0 | 11.3 | 0.00 | 1.22 | 1.07 | 91 | 1015.1 |
| 20260905144057 | 22 | 315 | 3.2 | 11.3 | 0.03 | 1.22 | 1.07 | 91 | 1014.8 |
| 20260905143556 | 22 | 0 | 1.6 | 8.0 | 0.03 | 1.22 | 1.07 | 92 | 1014.3 |
| 20260905143103 | 22 | 163 | 1.6 | 6.4 | 0.03 | 1.22 | 1.07 | 92 | 1014.2 |
| 20260905142600 | 22 | 251 | 1.6 | 6.4 | 0.03 | 1.22 | 1.07 | 92 | 1014.2 |
| 20260905142057 | 22 | 0 | 1.6 | 6.4 | 0.03 | 1.22 | 1.07 | 92 | 1014.1 |
| 20260905141623 | 22 | 153 | 0.0 | 4.8 | 0.03 | 1.22 | 1.07 | 93 | 1014.2 |
| 20260905141059 | 22 | 206 | 0.0 | 4.8 | 0.03 | 1.22 | 1.07 | 93 | 1014.0 |
| 20260905140600 | 22 | 206 | 0.0 | 6.4 | 0.03 | 1.22 | 1.07 | 93 | 1014.3 |
| 20260905140058 | 22 | 0 | 1.6 | 6.4 | 0.03 | 1.22 | 1.07 | 92 | 1014.3 |
| 20260905135558 | 22 | 162 | 1.6 | 6.4 | 0.03 | 1.22 | 1.07 | 93 | 1014.3 |
| 20260905135056 | 22 | 221 | 1.6 | 6.4 | 0.03 | 1.22 | 1.07 | 93 | 1014.6 |
| 20260905134603 | 22 | 242 | 1.6 | 4.8 | 0.03 | 1.22 | 1.07 | 93 | 1015.0 |
| 20260905134056 | 22 | 0 | 0.0 | 3.2 | 0.00 | 1.19 | 1.04 | 93 | 1015.3 |
| 20260905133557 | 22 | 165 | 0.0 | 3.2 | 0.00 | 1.19 | 1.04 | 93 | 1015.1 |
| 20260905133059 | 22 | 165 | 0.0 | 1.6 | 0.00 | 1.19 | 1.04 | 93 | 1015.3 |
| 20260905132557 | 22 | 0 | 0.0 | 1.6 | 0.00 | 1.19 | 1.04 | 93 | 1015.2 |
| 20260905132057 | 21 | 0 | 0.0 | 6.4 | 0.00 | 1.19 | 1.04 | 93 | 1015.3 |
| 20260905131629 | 21 | 0 | 0.0 | 6.4 | 0.00 | 1.19 | 1.04 | 93 | 1015.2 |
| 20260905131058 | 21 | 165 | 0.0 | 4.8 | 0.00 | 1.19 | 1.04 | 93 | 1015.4 |
| 20260905130558 | 21 | 0 | 1.6 | 4.8 | 0.00 | 1.19 | 1.04 | 93 | 1015.9 |
| 20260905130101 | 21 | 224 | 1.6 | 3.2 | 0.00 | 1.19 | 1.04 | 93 | 1015.9 |
| 20260905125556 | 21 | 0 | 0.0 | 3.2 | 0.00 | 1.19 | 1.04 | 93 | 1015.9 |
| 20260905125056 | 21 | 313 | 0.0 | 3.2 | 0.03 | 1.19 | 1.04 | 93 | 1015.9 |
| 20260905124558 | 21 | 313 | 0.0 | 0.0 | 0.08 | 1.19 | 1.04 | 93 | 1015.8 |